This demonstration page uses our WeatherBlox Daily Observations layout. Learn more.

Left ArrowRight Arrow

41.12389, -100.76542

Hourly Observations for December 16, 2017

Temp ( °F °C ) Dew Point ( °F °C ) Humidity (%) Winds ( mph kmh ) Pressure ( in mb ) Visibility ( mi km ) Precip ( " mm )
12:53 am 00:53 Clear 28 -2.2 21 -6.1 75 75 W 5 7 29.78 1009 10 16 0.00 0.00
1:53 am 01:53 Clear 22 -5.6 16 -8.9 78 78 WNW 5 7 29.78 1009 10 16 0.00 0.00
2:53 am 02:53 Clear 23 -5 17 -8.3 78 78 WNW 6 9 29.78 1009 10 16 0.00 0.00
3:53 am 03:53 Clear 28 -2.2 21 -6.1 75 75 WNW 7 11 29.76 1008 10 16 0.00 0.00
4:53 am 04:53 Clear 30 -1.1 22 -5.6 72 72 Calm 29.76 1008 10 16 0.00 0.00
5:53 am 05:53 Clear 27 -2.8 21 -6.1 78 78 NW 5 7 29.80 1009 10 16 0.00 0.00
6:53 am 06:53 Clear 27 -2.8 21 -6.1 78 78 Calm 29.83 1010 10 16 0.00 0.00
7:53 am 07:53 Clear 28 -2.2 21 -6.1 75 75 NW 6 9 29.86 1011 10 16 0.00 0.00
8:53 am 08:53 Sunny 29 -1.7 23 -5 78 78 Calm 29.87 1012 10 16 0.00 0.00
9:53 am 09:53 Sunny 42 5.6 21 -6.1 43 43 NNE 13 20 29.86 1011 10 16 0.00 0.00
10:53 am 10:53 Sunny 45 7.2 22 -5.6 40 40 NNE 21 33 29.89 1012 10 16 0.00 0.00
11:53 am 11:53 Sunny 46 7.8 27 -2.8 47 47 NNE 21 33 29.88 1012 10 16 0.00 0.00
12:53 pm 12:53 Sunny 47 8.3 28 -2.2 48 48 NNE 18 30 29.86 1011 10 16 0.00 0.00
1:53 pm 13:53 Sunny 47 8.3 29 -1.7 50 50 NNE 13 20 29.88 1012 10 16 0.00 0.00
2:53 pm 14:53 Sunny 46 7.8 29 -1.7 51 51 NNE 16 26 29.90 1012 10 16 0.00 0.00
3:53 pm 15:53 Sunny 44 6.7 29 -1.7 55 55 NE 17 28 29.92 1013 10 16 0.00 0.00
4:53 pm 16:53 Sunny 41 5 29 -1.7 62 62 NE 15 24 29.93 1014 10 16 0.00 0.00
5:53 pm 17:53 Clear 36 2.2 29 -1.7 76 76 NNE 5 7 29.96 1015 10 16 0.00 0.00
6:51 pm 18:51 Mostly Cloudy 36 2 30 -1 81 81 NE 7 11 30.03 1017 10 16 0.00 0.00
6:53 pm 18:53 Mostly Cloudy 36 2.2 32 0 86 86 NE 7 11 29.99 1016 10 16 0.00 0.00
7:53 pm 19:53 Cloudy 39 3.9 33 0.6 79 79 NE 15 24 30.00 1016 10 16 0.00 0.00
8:23 pm 20:23 Cloudy 39 3.9 33 0.6 79 79 NE 14 22 30.03 1017 10 16 0.00 0.00
8:53 pm 20:53 Cloudy 38 3.3 33 0.6 83 83 NE 16 26 30.02 1017 10 16 0.00 0.00
9:53 pm 21:53 Cloudy 38 3.3 33 0.6 83 83 NNE 18 30 30.00 1016 10 16 0.00 0.00
10:53 pm 22:53 Cloudy 38 3.3 33 0.6 83 83 NNE 18 30 30.00 1016 10 16 0.00 0.00
11:35 pm 23:35 Cloudy 37 2.8 33 0.6 86 86 NE 17 28 30.06 1018 10 16 0.00 0.00
11:53 pm 23:53 Cloudy 37 2.8 33 0.6 86 86 NNE 16 26 30.00 1016 10 16 0.00 0.00

Powered by AerisWeather